Location: Brahman Valley
(40.6513°N, 111.8855°W)
Time: 13:03:46
(UTC+00:00)

Transit 4A - All Passes

Search period start: 13 May 2021 00:00
Search period end: 23 May 2021 00:00
Orbit: 870 x 974 km, 66.8° (Epoch: 13 May)

Date Brightness Start Highest point End Pass type
(mag) Time Alt. Az. Time Alt. Az. Time Alt. Az.
13 May - 00:42:54 10° S 00:48:33 38° ESE 00:54:05 10° NE daylight
13 May - 02:29:11 10° WSW 02:34:53 37° NW 02:40:28 10° NNE daylight
13 May - 09:45:47 10° NNW 09:51:15 39° NE 09:56:38 10° ESE visible
13 May - 11:32:18 10° NW 11:37:27 33° WSW 11:42:34 10° S visible
14 May - 00:51:41 10° S 00:57:44 57° ESE 01:03:38 10° NE daylight
14 May - 02:39:17 10° WSW 02:44:25 27° NW 02:49:29 10° N daylight
14 May - 08:10:44 10° NNE 08:12:59 12° NE 08:15:13 10° ENE visible
14 May - 09:54:55 10° NNW 10:00:41 57° ENE 10:06:22 10° SE visible
14 May - 11:42:13 10° WNW 11:46:31 22° WSW 11:50:48 10° SSW visible
14 May - 23:19:18 10° ESE 23:21:32 12° ESE 23:23:44 10° E daylight
15 May - 01:00:47 10° SSW 01:06:59 84° ESE 01:13:03 10° NNE daylight
15 May - 02:49:42 10° W 02:54:03 20° NW 02:58:21 10° N daylight
15 May - 08:19:08 10° N 08:22:45 16° NE 08:26:22 10° ENE visible
15 May - 10:04:09 10° NNW 10:10:02 84° ENE 10:15:50 10° SSE visible
15 May - 11:52:48 10° WNW 11:55:31 14° WSW 11:58:14 10° SW daylight
15 May - 23:26:18 10° SSE 23:30:31 19° ESE 23:34:41 10° ENE daylight
16 May - 01:10:09 10° SW 01:16:18 68° WNW 01:22:20 10° NNE daylight
16 May - 03:00:32 10° WNW 03:03:47 15° NW 03:07:00 10° N visible
16 May - 08:27:54 10° N 08:32:27 23° NE 08:36:56 10° E visible
16 May - 10:13:30 10° NW 10:19:17 66° WSW 10:25:02 10° SSE visible
16 May - 23:34:22 10° SSE 23:39:35 29° ESE 23:44:44 10° NE daylight
17 May - 01:19:47 10° SW 01:25:42 47° NW 01:31:30 10° NNE daylight
17 May - 03:12:15 10° NW 03:13:37 11° NNW 03:14:57 10° NNW visible
17 May - 08:36:51 10° NNW 08:42:01 31° NE 08:47:08 10° ESE visible
17 May - 10:23:00 10° NW 10:28:29 43° WSW 10:33:55 10° S visible
17 May - 23:42:55 10° S 23:48:44 44° ESE 23:54:25 10° NE daylight
18 May - 01:29:41 10° WSW 01:35:11 33° NW 01:40:35 10° NNE daylight
18 May - 08:45:56 10° NNW 08:51:31 44° NE 08:57:03 10° SE visible
18 May - 10:32:43 10° NW 10:37:36 28° WSW 10:42:28 10° SSW visible
18 May - 23:51:49 10° SSW 23:57:56 66° ESE 00:03:55 10° NE daylight
19 May - 01:39:54 10° W 01:44:45 24° NW 01:49:32 10° N daylight
19 May - 07:10:34 10° N 07:13:23 13° NE 07:16:11 10° ENE visible
19 May - 08:55:06 10° NNW 09:00:55 65° ENE 09:06:41 10° SE visible
19 May - 10:42:47 10° WNW 10:46:39 18° WSW 10:50:29 10° SSW visible
19 May - 22:18:31 10° SE 22:21:38 14° ESE 22:24:44 10° ENE daylight
20 May - 00:01:00 10° SSW 00:07:12 86° WNW 00:13:16 10° NNE daylight
20 May - 01:50:26 10° W 01:54:25 18° NW 01:58:22 10° N daylight
20 May - 07:19:08 10° N 07:23:08 18° NE 07:27:04 10° E visible
20 May - 09:04:22 10° NNW 09:10:14 85° WSW 09:16:03 10° SSE visible
20 May - 10:53:59 10° W 10:55:38 11° W 10:57:16 10° WSW visible
20 May - 22:26:02 10° SSE 22:30:40 22° ESE 22:35:12 10° ENE daylight
21 May - 00:10:29 10° SW 00:16:34 59° WNW 00:22:30 10° NNE daylight
21 May - 02:01:28 10° WNW 02:04:11 13° NW 02:06:52 10° N daylight
21 May - 07:27:59 10° N 07:32:46 25° NE 07:37:30 10° ESE visible
21 May - 09:13:46 10° NW 09:19:28 57° WSW 09:25:08 10° S visible
21 May - 22:34:17 10° S 22:39:45 34° ESE 22:45:06 10° NE daylight
22 May - 00:20:13 10° WSW 00:25:59 41° NW 00:31:39 10° NNE daylight
22 May - 07:36:59 10° NNW 07:42:19 35° NE 07:47:36 10° ESE visible
22 May - 09:23:20 10° NW 09:28:38 37° WSW 09:33:55 10° S visible
22 May - 22:42:59 10° S 22:48:55 51° ESE 22:54:44 10° NE daylight
